Satellite-Ground Cal/Val Site Overpasses Predictions

Prediction of Satellite NPP Overpassing Cal/Val Site: Antarctic Dome C

Ground Cal/Val Site Location: Latitude: -75.10, Longitude: 123.35; Satellite-Ground Site NADIR distance within 100 km.

Table of predicted overpasses for the next 14.0 days since TLE Epoch: 8/7/2020
Interval Starting Time Ending Time Minimum Distance Time Minimum Distance (km)
1 08/08/2020 07:44:00 08/08/2020 07:44:21 08/08/2020 07:44:10 69.34
2 08/09/2020 07:25:08 08/09/2020 07:25:35 08/09/2020 07:25:21 38.61
3 08/11/2020 15:07:35 08/11/2020 15:07:43 08/11/2020 15:07:39 96.22
4 08/12/2020 14:48:36 08/12/2020 14:49:05 08/12/2020 14:48:50 14.91
5 08/14/2020 07:31:26 08/14/2020 07:31:55 08/14/2020 07:31:40 2.90
6 08/17/2020 14:54:54 08/17/2020 14:55:22 08/17/2020 14:55:08 21.61
7 08/18/2020 14:36:13 08/18/2020 14:36:27 08/18/2020 14:36:20 85.31
8 08/19/2020 07:37:46 08/19/2020 07:38:13 08/19/2020 07:37:59 34.39
